Terminal Aerodrome Forecast
Issued by NWS

Home | Current Version | Previous Version | Text Only | Print | Product List | Glossary On
Versions: 1 2 3 4 5 6 7 8 9 10 11 12 13 14 15 16 17 18 19 20 21 22 23 24
000
FTUS45 KREV 041736
TAFTVL
TAF
KTVL 041736Z 0418/0518 04007KT P6SM VCTS SCT070CB SCT120
      TEMPO 0418/0420 5SM TSRA BKN040CB OVC080
     FM050100 19006KT P6SM VCSH BKN070 BKN100
     FM050400 VRB03KT P6SM SCT100 BKN180=

USA.gov is the U.S. government's official web portal to all federal, state and local government web resources and services.